Time,TemperatureF,DewpointF,PressureIn,WindDirection,WindDirectionDegrees,WindSpeedMPH,WindSpeedGustMPH,Humidity,HourlyPrecipIn,Conditions,Clouds,dailyrainin,SoftwareType,DateUTC
2013-04-16 00:03:00,72.3,68.9,30.06,North,-999,-999.0,-999.0,89,0.00,,,0.00,WSDL version 420,2013-04-16 04:03:00,
2013-04-16 00:08:00,72.2,68.7,30.06,North,-999,-999.0,-999.0,89,0.00,,,0.00,WSDL version 420,2013-04-16 04:08:00,
2013-04-16 00:13:00,72.0,68.6,30.06,North,-999,-999.0,-999.0,89,0.00,,,0.00,WSDL version 420,2013-04-16 04:13:00,
2013-04-16 00:18:00,72.0,68.5,30.06,North,-999,-999.0,-999.0,89,0.00,,,0.00,WSDL version 420,2013-04-16 04:18:00,
2013-04-16 00:23:00,72.0,68.5,30.06,North,-999,-999.0,-999.0,89,0.00,,,0.00,WSDL version 420,2013-04-16 04:23:00,
2013-04-16 00:28:00,72.0,68.5,30.06,North,-999,-999.0,-999.0,89,0.00,,,0.00,WSDL version 420,2013-04-16 04:28:00,
2013-04-16 00:33:00,71.8,68.4,30.06,North,-999,-999.0,-999.0,89,0.00,,,0.00,WSDL version 420,2013-04-16 04:33:00,
2013-04-16 00:38:00,71.8,68.3,30.06,North,-999,-999.0,-999.0,89,0.00,,,0.00,WSDL version 420,2013-04-16 04:38:00,
2013-04-16 00:43:00,71.7,68.3,30.03,North,-999,-999.0,-999.0,89,0.00,,,0.00,WSDL version 420,2013-04-16 04:43:00,
2013-04-16 00:48:00,71.6,68.2,30.03,North,-999,-999.0,-999.0,89,0.00,,,0.00,WSDL version 420,2013-04-16 04:48:00,
2013-04-16 00:53:00,71.6,68.2,30.03,North,-999,-999.0,-999.0,89,0.00,,,0.00,WSDL version 420,2013-04-16 04:53:00,
2013-04-16 00:58:00,71.6,68.2,30.06,North,-999,-999.0,-999.0,89,0.00,,,0.00,WSDL version 420,2013-04-16 04:58:00,
2013-04-16 01:03:00,71.4,68.3,30.06,North,-999,-999.0,-999.0,90,0.00,,,0.00,WSDL version 420,2013-04-16 05:03:00,
2013-04-16 01:08:00,71.3,68.2,30.06,North,-999,-999.0,-999.0,90,0.00,,,0.00,WSDL version 420,2013-04-16 05:08:00,
2013-04-16 01:13:00,71.2,68.2,30.06,North,-999,-999.0,-999.0,90,0.00,,,0.00,WSDL version 420,2013-04-16 05:13:00,
2013-04-16 01:18:00,71.2,68.1,30.06,North,-999,-999.0,-999.0,90,0.00,,,0.00,WSDL version 420,2013-04-16 05:18:00,
2013-04-16 01:23:00,71.2,68.1,30.06,North,-999,-999.0,-999.0,90,0.00,,,0.00,WSDL version 420,2013-04-16 05:23:00,
2013-04-16 01:28:00,71.2,68.2,30.03,North,-999,-999.0,-999.0,90,0.00,,,0.00,WSDL version 420,2013-04-16 05:28:00,
2013-04-16 01:33:00,71.2,68.3,30.03,North,-999,-999.0,-999.0,91,0.00,,,0.00,WSDL version 420,2013-04-16 05:33:00,
2013-04-16 01:38:00,71.2,68.5,30.03,North,-999,-999.0,-999.0,91,0.00,,,0.00,WSDL version 420,2013-04-16 05:38:00,
2013-04-16 01:43:00,71.2,68.5,30.06,North,-999,-999.0,-999.0,91,0.00,,,0.00,WSDL version 420,2013-04-16 05:43:00,
2013-04-16 01:48:00,71.2,68.4,30.06,North,-999,-999.0,-999.0,91,0.00,,,0.00,WSDL version 420,2013-04-16 05:48:00,
2013-04-16 01:53:00,71.1,68.3,30.06,North,-999,-999.0,-999.0,91,0.00,,,0.00,WSDL version 420,2013-04-16 05:53:00,
2013-04-16 01:58:00,71.1,68.3,30.06,North,-999,-999.0,-999.0,91,0.00,,,0.00,WSDL version 420,2013-04-16 05:58:00,
2013-04-16 02:03:00,70.9,68.2,30.06,North,-999,-999.0,-999.0,91,0.00,,,0.00,WSDL version 420,2013-04-16 06:03:00,
2013-04-16 02:08:00,70.9,68.2,30.06,North,-999,-999.0,-999.0,91,0.00,,,0.00,WSDL version 420,2013-04-16 06:08:00,
2013-04-16 02:13:00,70.9,68.2,30.06,North,-999,-999.0,-999.0,91,0.00,,,0.00,WSDL version 420,2013-04-16 06:13:00,
2013-04-16 02:18:00,70.8,68.0,30.06,North,-999,-999.0,-999.0,91,0.00,,,0.00,WSDL version 420,2013-04-16 06:18:00,
2013-04-16 02:23:00,70.7,68.0,30.06,North,-999,-999.0,-999.0,91,0.00,,,0.00,WSDL version 420,2013-04-16 06:23:00,
2013-04-16 02:28:00,70.7,68.0,30.06,North,-999,-999.0,-999.0,91,0.00,,,0.00,WSDL version 420,2013-04-16 06:28:00,
2013-04-16 02:33:00,70.7,68.0,30.06,North,-999,-999.0,-999.0,91,0.00,,,0.00,WSDL version 420,2013-04-16 06:33:00,
2013-04-16 02:38:00,70.7,68.0,30.06,North,-999,-999.0,-999.0,91,0.00,,,0.00,WSDL version 420,2013-04-16 06:38:00,
2013-04-16 02:43:00,70.7,68.0,30.06,North,-999,-999.0,-999.0,91,0.00,,,0.00,WSDL version 420,2013-04-16 06:43:00,
2013-04-16 02:48:00,70.6,67.9,30.06,North,-999,-999.0,-999.0,91,0.00,,,0.00,WSDL version 420,2013-04-16 06:48:00,
2013-04-16 02:53:00,70.5,67.8,30.06,North,-999,-999.0,-999.0,91,0.00,,,0.00,WSDL version 420,2013-04-16 06:53:00,
2013-04-16 02:58:00,70.5,67.8,30.06,North,-999,-999.0,-999.0,91,0.00,,,0.00,WSDL version 420,2013-04-16 06:58:00,
2013-04-16 03:03:00,70.5,67.8,30.06,North,-999,-999.0,-999.0,91,0.00,,,0.00,WSDL version 420,2013-04-16 07:03:00,
2013-04-16 03:08:00,70.4,67.7,30.06,North,-999,-999.0,-999.0,91,0.00,,,0.00,WSDL version 420,2013-04-16 07:08:00,
2013-04-16 03:13:00,70.3,67.6,30.06,North,-999,-999.0,-999.0,91,0.00,,,0.00,WSDL version 420,2013-04-16 07:13:00,
2013-04-16 03:18:00,70.3,67.5,30.06,North,-999,-999.0,-999.0,91,0.00,,,0.00,WSDL version 420,2013-04-16 07:18:00,
2013-04-16 03:23:00,70.1,67.4,30.06,North,-999,-999.0,-999.0,91,0.00,,,0.00,WSDL version 420,2013-04-16 07:23:00,
2013-04-16 03:28:00,70.0,67.3,30.06,North,-999,-999.0,-999.0,91,0.00,,,0.00,WSDL version 420,2013-04-16 07:28:00,
2013-04-16 03:33:00,70.0,67.3,30.06,North,-999,-999.0,-999.0,91,0.00,,,0.00,WSDL version 420,2013-04-16 07:33:00,
2013-04-16 03:38:00,69.9,67.2,30.06,North,-999,-999.0,-999.0,91,0.00,,,0.00,WSDL version 420,2013-04-16 07:38:00,
2013-04-16 03:43:00,69.8,67.1,30.06,North,-999,-999.0,-999.0,91,0.00,,,0.00,WSDL version 420,2013-04-16 07:43:00,
2013-04-16 03:48:00,69.8,67.1,30.06,North,-999,-999.0,-999.0,91,0.00,,,0.00,WSDL version 420,2013-04-16 07:48:00,
2013-04-16 03:53:00,69.9,67.5,30.06,North,-999,-999.0,-999.0,92,0.00,,,0.00,WSDL version 420,2013-04-16 07:53:00,
2013-04-16 03:58:00,69.8,67.4,30.06,North,-999,-999.0,-999.0,92,0.00,,,0.00,WSDL version 420,2013-04-16 07:58:00,
2013-04-16 04:03:00,69.8,67.4,30.06,North,-999,-999.0,-999.0,92,0.00,,,0.00,WSDL version 420,2013-04-16 08:03:00,
2013-04-16 04:08:00,69.7,67.3,30.06,North,-999,-999.0,-999.0,92,0.00,,,0.00,WSDL version 420,2013-04-16 08:08:00,
2013-04-16 04:15:00,69.6,67.3,30.06,North,-999,-999.0,-999.0,92,0.00,,,0.00,WSDL version 420,2013-04-16 08:15:00,
2013-04-16 04:20:00,69.6,67.3,30.06,North,-999,-999.0,-999.0,92,0.00,,,0.00,WSDL version 420,2013-04-16 08:20:00,
2013-04-16 04:25:00,69.6,67.3,30.06,North,-999,-999.0,-999.0,92,0.00,,,0.00,WSDL version 420,2013-04-16 08:25:00,
2013-04-16 04:30:00,69.6,67.2,30.06,North,-999,-999.0,-999.0,92,0.00,,,0.00,WSDL version 420,2013-04-16 08:30:00,
2013-04-16 04:35:00,69.5,67.2,30.06,North,-999,-999.0,-999.0,92,0.00,,,0.00,WSDL version 420,2013-04-16 08:35:00,
2013-04-16 04:40:00,69.4,67.1,30.06,North,-999,-999.0,-999.0,92,0.00,,,0.00,WSDL version 420,2013-04-16 08:40:00,
2013-04-16 04:45:00,69.4,67.1,30.06,North,-999,-999.0,-999.0,92,0.00,,,0.00,WSDL version 420,2013-04-16 08:45:00,
2013-04-16 04:50:00,69.4,67.1,30.06,North,-999,-999.0,-999.0,92,0.00,,,0.00,WSDL version 420,2013-04-16 08:50:00,
2013-04-16 04:55:00,69.4,67.1,30.06,North,-999,-999.0,-999.0,92,0.00,,,0.00,WSDL version 420,2013-04-16 08:55:00,
2013-04-16 05:00:00,69.4,67.2,30.03,North,-999,-999.0,-999.0,93,0.00,,,0.00,WSDL version 420,2013-04-16 09:00:00,
2013-04-16 05:05:00,69.4,67.4,30.03,North,-999,-999.0,-999.0,93,0.00,,,0.00,WSDL version 420,2013-04-16 09:05:00,
2013-04-16 05:10:00,69.4,67.3,30.03,North,-999,-999.0,-999.0,92,0.00,,,0.00,WSDL version 420,2013-04-16 09:10:00,
2013-04-16 05:15:00,69.3,66.9,30.06,North,-999,-999.0,-999.0,92,0.00,,,0.00,WSDL version 420,2013-04-16 09:15:00,
2013-04-16 05:20:00,69.4,67.2,30.06,North,-999,-999.0,-999.0,93,0.00,,,0.00,WSDL version 420,2013-04-16 09:20:00,
2013-04-16 05:25:00,69.4,67.4,30.06,North,-999,-999.0,-999.0,93,0.00,,,0.00,WSDL version 420,2013-04-16 09:25:00,
2013-04-16 05:30:00,69.3,67.3,30.06,North,-999,-999.0,-999.0,93,0.00,,,0.00,WSDL version 420,2013-04-16 09:30:00,
2013-04-16 05:35:00,69.3,67.3,30.06,North,-999,-999.0,-999.0,93,0.00,,,0.00,WSDL version 420,2013-04-16 09:35:00,
2013-04-16 05:40:00,69.3,67.1,30.06,North,-999,-999.0,-999.0,92,0.00,,,0.00,WSDL version 420,2013-04-16 09:40:00,
2013-04-16 05:45:00,69.3,67.0,30.06,North,-999,-999.0,-999.0,93,0.00,,,0.00,WSDL version 420,2013-04-16 09:45:00,
2013-04-16 05:50:00,69.3,67.3,30.06,North,-999,-999.0,-999.0,93,0.00,,,0.00,WSDL version 420,2013-04-16 09:50:00,
2013-04-16 05:55:00,69.3,67.1,30.06,North,-999,-999.0,-999.0,93,0.00,,,0.00,WSDL version 420,2013-04-16 09:55:00,
2013-04-16 06:00:00,69.3,67.2,30.06,North,-999,-999.0,-999.0,93,0.00,,,0.00,WSDL version 420,2013-04-16 10:00:00,
2013-04-16 06:05:00,69.3,67.3,30.06,North,-999,-999.0,-999.0,93,0.00,,,0.00,WSDL version 420,2013-04-16 10:05:00,
2013-04-16 06:10:00,69.3,67.1,30.06,North,-999,-999.0,-999.0,92,0.00,,,0.00,WSDL version 420,2013-04-16 10:10:00,
2013-04-16 06:15:00,69.2,66.8,30.06,North,-999,-999.0,-999.0,92,0.00,,,0.00,WSDL version 420,2013-04-16 10:15:00,
2013-04-16 06:20:00,69.1,66.7,30.06,North,-999,-999.0,-999.0,92,0.00,,,0.00,WSDL version 420,2013-04-16 10:20:00,
2013-04-16 06:25:00,69.1,67.1,30.06,North,-999,-999.0,-999.0,93,0.00,,,0.00,WSDL version 420,2013-04-16 10:25:00,
2013-04-16 06:30:00,69.1,67.1,30.06,North,-999,-999.0,-999.0,93,0.00,,,0.00,WSDL version 420,2013-04-16 10:30:00,
2013-04-16 06:35:00,69.1,67.1,30.06,North,-999,-999.0,-999.0,93,0.00,,,0.00,WSDL version 420,2013-04-16 10:35:00,
2013-04-16 06:40:00,69.1,67.1,30.06,North,-999,-999.0,-999.0,93,0.00,,,0.00,WSDL version 420,2013-04-16 10:40:00,
2013-04-16 06:45:00,69.0,67.0,30.06,North,-999,-999.0,-999.0,93,0.00,,,0.00,WSDL version 420,2013-04-16 10:45:00,
2013-04-16 06:50:00,68.9,66.9,30.06,North,-999,-999.0,-999.0,93,0.00,,,0.00,WSDL version 420,2013-04-16 10:50:00,
2013-04-16 06:55:00,69.1,67.1,30.06,North,-999,-999.0,-999.0,93,0.00,,,0.00,WSDL version 420,2013-04-16 10:55:00,
2013-04-16 07:00:00,69.1,67.1,30.06,North,-999,-999.0,-999.0,93,0.00,,,0.00,WSDL version 420,2013-04-16 11:00:00,
2013-04-16 07:05:00,69.1,67.1,30.06,North,-999,-999.0,-999.0,93,0.00,,,0.00,WSDL version 420,2013-04-16 11:05:00,
2013-04-16 07:10:00,69.1,67.1,30.06,North,-999,-999.0,-999.0,93,0.00,,,0.00,WSDL version 420,2013-04-16 11:10:00,
2013-04-16 07:15:00,69.1,67.1,30.09,North,-999,-999.0,-999.0,93,0.00,,,0.00,WSDL version 420,2013-04-16 11:15:00,
2013-04-16 07:20:00,69.2,67.2,30.09,North,-999,-999.0,-999.0,93,0.00,,,0.00,WSDL version 420,2013-04-16 11:20:00,
2013-04-16 07:25:00,69.3,67.3,30.09,North,-999,-999.0,-999.0,93,0.00,,,0.00,WSDL version 420,2013-04-16 11:25:00,
2013-04-16 07:30:00,69.5,67.6,30.09,North,-999,-999.0,-999.0,94,0.00,,,0.00,WSDL version 420,2013-04-16 11:30:00,
2013-04-16 07:35:00,69.7,67.9,30.09,North,-999,-999.0,-999.0,93,0.00,,,0.00,WSDL version 420,2013-04-16 11:35:00,
2013-04-16 07:40:00,69.9,68.0,30.09,SW,225,0.0,0.0,94,0.00,,,0.00,WSDL version 420,2013-04-16 11:40:00,
2013-04-16 07:45:00,70.3,68.6,30.09,SW,225,0.0,0.0,94,0.00,,,0.00,WSDL version 420,2013-04-16 11:45:00,
2013-04-16 07:50:00,70.6,68.9,30.09,NW,323,0.0,0.0,94,0.00,,,0.00,WSDL version 420,2013-04-16 11:50:00,
2013-04-16 07:55:00,70.8,69.2,30.09,North,360,0.0,0.0,94,0.00,,,0.00,WSDL version 420,2013-04-16 11:55:00,
2013-04-16 08:00:00,71.2,69.5,30.12,North,360,0.0,0.0,94,0.00,,,0.00,WSDL version 420,2013-04-16 12:00:00,
2013-04-16 08:05:00,71.5,69.8,30.12,North,360,0.0,0.0,94,0.00,,,0.00,WSDL version 420,2013-04-16 12:05:00,
2013-04-16 08:10:00,71.9,70.2,30.12,North,360,0.0,0.0,94,0.00,,,0.00,WSDL version 420,2013-04-16 12:10:00,
2013-04-16 08:15:00,72.4,70.7,30.12,North,357,0.0,0.0,94,0.00,,,0.00,WSDL version 420,2013-04-16 12:15:00,
2013-04-16 08:20:00,72.8,71.1,30.12,NNW,338,0.0,1.1,94,0.00,,,0.00,WSDL version 420,2013-04-16 12:20:00,
2013-04-16 08:25:00,73.2,71.5,30.12,NNE,19,0.4,1.1,94,0.00,,,0.00,WSDL version 420,2013-04-16 12:25:00,
2013-04-16 08:30:00,73.4,71.4,30.12,NNE,14,0.0,1.3,93,0.00,,,0.00,WSDL version 420,2013-04-16 12:30:00,
2013-04-16 08:35:00,73.9,71.9,30.12,North,354,0.0,1.3,93,0.00,,,0.00,WSDL version 420,2013-04-16 12:35:00,
2013-04-16 08:40:00,74.4,72.4,30.12,NNE,17,0.0,0.0,93,0.00,,,0.00,WSDL version 420,2013-04-16 12:40:00,
2013-04-16 08:45:00,74.9,72.9,30.12,NNE,23,0.0,0.0,93,0.00,,,0.00,WSDL version 420,2013-04-16 12:45:00,
2013-04-16 08:50:00,75.5,73.1,30.12,North,360,0.0,0.0,92,0.00,,,0.00,WSDL version 420,2013-04-16 12:50:00,
2013-04-16 08:55:00,76.2,73.8,30.12,NE,34,0.0,1.6,92,0.00,,,0.00,WSDL version 420,2013-04-16 12:55:00,
2013-04-16 09:00:00,76.7,73.9,30.12,NE,53,0.4,1.6,91,0.00,,,0.00,WSDL version 420,2013-04-16 13:00:00,
2013-04-16 09:05:00,77.7,74.6,30.12,NNW,334,0.0,1.3,90,0.00,,,0.00,WSDL version 420,2013-04-16 13:05:00,
2013-04-16 09:10:00,78.6,75.4,30.12,NE,53,0.0,2.0,90,0.00,,,0.00,WSDL version 420,2013-04-16 13:10:00,
2013-04-16 09:15:00,80.2,76.9,30.12,North,3,0.0,2.0,89,0.00,,,0.00,WSDL version 420,2013-04-16 13:15:00,
2013-04-16 09:20:00,81.6,75.3,30.12,ENE,59,2.4,4.3,79,0.00,,,0.00,WSDL version 420,2013-04-16 13:20:00,
2013-04-16 09:25:00,82.5,74.1,30.12,NE,49,2.1,4.3,75,0.00,,,0.00,WSDL version 420,2013-04-16 13:25:00,
2013-04-16 09:30:00,83.5,73.5,30.09,ESE,115,3.1,4.9,70,0.00,,,0.00,WSDL version 420,2013-04-16 13:30:00,
2013-04-16 09:35:00,84.4,72.7,30.09,NE,42,2.6,4.9,68,0.00,,,0.00,WSDL version 420,2013-04-16 13:35:00,
2013-04-16 09:40:00,84.8,72.4,30.09,NE,56,3.6,5.6,66,0.00,,,0.00,WSDL version 420,2013-04-16 13:40:00,
2013-04-16 09:45:00,85.4,72.5,30.12,East,90,2.5,5.6,65,0.00,,,0.00,WSDL version 420,2013-04-16 13:45:00,
2013-04-16 09:50:00,85.8,72.1,30.12,NNE,14,2.3,6.3,64,0.00,,,0.00,WSDL version 420,2013-04-16 13:50:00,
2013-04-16 09:55:00,84.9,70.4,30.12,ENE,64,3.1,6.3,62,0.00,,,0.00,WSDL version 420,2013-04-16 13:55:00,
2013-04-16 10:00:00,84.6,70.4,30.12,ENE,73,2.7,6.3,64,0.00,,,0.00,WSDL version 420,2013-04-16 14:00:00,
2013-04-16 10:05:00,86.2,71.8,30.12,NE,37,2.3,5.6,63,0.00,,,0.00,WSDL version 420,2013-04-16 14:05:00,
2013-04-16 10:10:00,86.3,71.5,30.12,SSW,209,2.4,5.6,62,0.00,,,0.00,WSDL version 420,2013-04-16 14:10:00,
2013-04-16 10:15:00,86.6,71.1,30.12,East,83,3.7,5.8,60,0.00,,,0.00,WSDL version 420,2013-04-16 14:15:00,
2013-04-16 10:20:00,86.5,70.1,30.12,ESE,106,3.5,5.8,58,0.00,,,0.00,WSDL version 420,2013-04-16 14:20:00,
2013-04-16 10:25:00,87.0,70.9,30.12,East,93,1.0,5.8,59,0.00,,,0.00,WSDL version 420,2013-04-16 14:25:00,
2013-04-16 10:30:00,87.1,71.3,30.12,NE,35,2.4,4.7,59,0.00,,,0.00,WSDL version 420,2013-04-16 14:30:00,
2013-04-16 10:35:00,86.2,70.2,30.12,ENE,70,2.6,5.8,59,0.00,,,0.00,WSDL version 420,2013-04-16 14:35:00,
2013-04-16 10:40:00,86.0,69.7,30.12,ENE,73,3.9,7.2,58,0.00,,,0.00,WSDL version 420,2013-04-16 14:40:00,
2013-04-16 10:45:00,86.5,70.2,30.12,NE,45,4.1,7.2,58,0.00,,,0.00,WSDL version 420,2013-04-16 14:45:00,
2013-04-16 10:50:00,86.5,70.5,30.12,East,83,4.0,7.2,59,0.00,,,0.00,WSDL version 420,2013-04-16 14:50:00,
2013-04-16 10:55:00,86.4,70.5,30.12,ENE,75,2.5,7.2,60,0.00,,,0.00,WSDL version 420,2013-04-16 14:55:00,
2013-04-16 11:00:00,86.7,71.0,30.09,ENE,70,3.9,8.1,58,0.00,,,0.00,WSDL version 420,2013-04-16 15:00:00,
2013-04-16 11:05:00,86.5,70.4,30.09,ENE,71,3.7,8.1,59,0.00,,,0.00,WSDL version 420,2013-04-16 15:05:00,
2013-04-16 11:10:00,86.8,70.7,30.09,ENE,59,4.0,7.8,58,0.00,,,0.00,WSDL version 420,2013-04-16 15:10:00,
2013-04-16 11:15:00,86.6,70.3,30.12,SE,143,4.8,10.3,60,0.00,,,0.00,WSDL version 420,2013-04-16 15:15:00,
2013-04-16 11:20:00,86.8,70.8,30.12,SE,131,3.0,10.3,59,0.00,,,0.00,WSDL version 420,2013-04-16 15:20:00,
2013-04-16 11:25:00,86.5,70.2,30.12,ESE,107,4.1,7.2,59,0.00,,,0.00,WSDL version 420,2013-04-16 15:25:00,
2013-04-16 11:30:00,87.3,71.7,30.12,SSE,162,2.9,8.1,60,0.00,,,0.00,WSDL version 420,2013-04-16 15:30:00,
2013-04-16 11:35:00,87.4,70.7,30.12,NE,45,4.6,9.8,55,0.00,,,0.00,WSDL version 420,2013-04-16 15:35:00,
2013-04-16 11:40:00,87.1,69.0,30.12,East,83,4.8,9.8,55,0.00,,,0.00,WSDL version 420,2013-04-16 15:40:00,
2013-04-16 11:45:00,86.1,68.5,30.12,NE,55,5.3,8.7,56,0.00,,,0.00,WSDL version 420,2013-04-16 15:45:00,
2013-04-16 11:50:00,86.1,69.1,30.12,ESE,106,4.3,8.7,57,0.00,,,0.00,WSDL version 420,2013-04-16 15:50:00,
2013-04-16 11:55:00,86.4,69.9,30.12,ENE,77,5.2,7.8,58,0.00,,,0.00,WSDL version 420,2013-04-16 15:55:00,
2013-04-16 12:00:00,86.3,69.3,30.12,ENE,68,4.5,7.2,57,0.00,,,0.00,WSDL version 420,2013-04-16 16:00:00,
2013-04-16 12:05:00,85.2,68.8,30.12,NNE,31,4.1,6.5,59,0.00,,,0.00,WSDL version 420,2013-04-16 16:05:00,
2013-04-16 12:10:00,84.6,68.8,30.12,NE,45,3.6,6.0,59,0.00,,,0.00,WSDL version 420,2013-04-16 16:10:00,
2013-04-16 12:15:00,84.5,68.8,30.12,East,84,4.4,6.5,60,0.00,,,0.00,WSDL version 420,2013-04-16 16:15:00,
2013-04-16 12:20:00,85.2,69.6,30.12,ENE,68,4.8,8.5,59,0.00,,,0.00,WSDL version 420,2013-04-16 16:20:00,
2013-04-16 12:25:00,86.0,70.2,30.12,SSE,149,3.7,8.5,59,0.00,,,0.00,WSDL version 420,2013-04-16 16:25:00,
2013-04-16 12:30:00,86.3,69.5,30.15,NNE,19,5.0,7.4,59,0.00,,,0.00,WSDL version 420,2013-04-16 16:30:00,
2013-04-16 12:35:00,86.3,69.8,30.15,ENE,71,4.4,7.4,57,0.00,,,0.00,WSDL version 420,2013-04-16 16:35:00,
2013-04-16 12:40:00,86.0,69.0,30.15,ENE,60,5.3,7.4,57,0.00,,,0.00,WSDL version 420,2013-04-16 16:40:00,
2013-04-16 12:45:00,86.3,69.6,30.12,ENE,64,5.7,10.1,58,0.00,,,0.00,WSDL version 420,2013-04-16 16:45:00,
2013-04-16 12:50:00,87.1,69.8,30.12,ENE,77,4.9,10.1,56,0.00,,,0.00,WSDL version 420,2013-04-16 16:50:00,
2013-04-16 12:55:00,87.7,69.7,30.12,ENE,76,5.6,8.9,53,0.00,,,0.00,WSDL version 420,2013-04-16 16:55:00,
2013-04-16 13:00:00,87.7,68.6,30.09,NE,55,4.6,8.9,54,0.00,,,0.00,WSDL version 420,2013-04-16 17:00:00,
2013-04-16 13:05:00,87.1,68.1,30.09,East,90,5.7,6.7,53,0.00,,,0.00,WSDL version 420,2013-04-16 17:05:00,
2013-04-16 13:10:00,86.9,68.5,30.09,NE,55,5.1,8.7,54,0.00,,,0.00,WSDL version 420,2013-04-16 17:10:00,
2013-04-16 13:15:00,87.2,68.9,30.09,ENE,68,3.9,8.7,56,0.00,,,0.00,WSDL version 420,2013-04-16 17:15:00,
2013-04-16 13:20:00,87.2,68.4,30.09,NE,48,5.8,8.7,54,0.00,,,0.00,WSDL version 420,2013-04-16 17:20:00,
2013-04-16 13:25:00,87.1,68.6,30.09,NE,48,5.3,8.7,54,0.00,,,0.00,WSDL version 420,2013-04-16 17:25:00,
2013-04-16 13:30:00,87.3,68.1,30.09,ENE,75,5.5,9.2,53,0.00,,,0.00,WSDL version 420,2013-04-16 17:30:00,
2013-04-16 13:35:00,87.4,68.3,30.09,ENE,77,6.1,9.2,53,0.00,,,0.00,WSDL version 420,2013-04-16 17:35:00,
2013-04-16 13:40:00,86.4,67.8,30.09,NE,42,3.6,7.6,55,0.00,,,0.00,WSDL version 420,2013-04-16 17:40:00,
2013-04-16 13:45:00,85.7,67.9,30.09,ENE,73,5.0,9.8,56,0.00,,,0.00,WSDL version 420,2013-04-16 17:45:00,
2013-04-16 13:50:00,86.2,68.4,30.09,NE,34,3.8,9.8,55,0.00,,,0.00,WSDL version 420,2013-04-16 17:50:00,
2013-04-16 13:55:00,86.9,69.9,30.09,ENE,64,3.8,6.3,56,0.00,,,0.00,WSDL version 420,2013-04-16 17:55:00,
2013-04-16 14:00:00,86.4,68.3,30.09,NE,45,4.6,7.6,56,0.00,,,0.00,WSDL version 420,2013-04-16 18:00:00,
2013-04-16 14:05:00,85.8,68.3,30.09,ENE,68,4.8,7.6,56,0.00,,,0.00,WSDL version 420,2013-04-16 18:05:00,
2013-04-16 14:10:00,86.6,68.6,30.09,ESE,109,4.6,7.2,56,0.00,,,0.00,WSDL version 420,2013-04-16 18:10:00,
2013-04-16 14:15:00,86.1,67.5,30.09,ENE,71,5.2,8.5,55,0.00,,,0.00,WSDL version 420,2013-04-16 18:15:00,
2013-04-16 14:20:00,85.7,67.8,30.09,NNE,25,4.6,8.5,56,0.00,,,0.00,WSDL version 420,2013-04-16 18:20:00,
2013-04-16 14:25:00,85.4,67.4,30.09,ENE,64,3.9,8.5,55,0.00,,,0.00,WSDL version 420,2013-04-16 18:25:00,
2013-04-16 14:30:00,85.0,67.2,30.09,NE,42,4.9,7.4,55,0.00,,,0.00,WSDL version 420,2013-04-16 18:30:00,
2013-04-16 14:35:00,85.4,67.6,30.09,ENE,73,5.4,7.4,55,0.00,,,0.00,WSDL version 420,2013-04-16 18:35:00,
2013-04-16 14:40:00,86.3,68.6,30.09,ENE,71,2.9,8.7,57,0.00,,,0.00,WSDL version 420,2013-04-16 18:40:00,
2013-04-16 14:45:00,86.8,68.8,30.09,NE,53,5.7,8.7,54,0.00,,,0.00,WSDL version 420,2013-04-16 18:45:00,
2013-04-16 14:50:00,86.8,67.9,30.09,NE,48,4.8,8.1,54,0.00,,,0.00,WSDL version 420,2013-04-16 18:50:00,
2013-04-16 14:55:00,86.1,67.2,30.09,ENE,64,4.2,8.7,55,0.00,,,0.00,WSDL version 420,2013-04-16 18:55:00,
2013-04-16 15:00:00,86.4,68.5,30.09,NE,55,2.6,8.7,56,0.00,,,0.00,WSDL version 420,2013-04-16 19:00:00,
2013-04-16 15:05:00,85.8,67.4,30.09,NNE,32,5.0,9.2,56,0.00,,,0.00,WSDL version 420,2013-04-16 19:05:00,
2013-04-16 15:10:00,85.6,67.7,30.09,NE,48,4.8,9.2,55,0.00,,,0.00,WSDL version 420,2013-04-16 19:10:00,
2013-04-16 15:15:00,85.9,68.0,30.06,NE,45,4.2,7.4,55,0.00,,,0.00,WSDL version 420,2013-04-16 19:15:00,
2013-04-16 15:20:00,86.2,67.7,30.06,NE,45,4.6,6.3,53,0.00,,,0.00,WSDL version 420,2013-04-16 19:20:00,
2013-04-16 15:25:00,85.5,67.1,30.06,NE,48,4.5,7.6,55,0.00,,,0.00,WSDL version 420,2013-04-16 19:25:00,
2013-04-16 15:30:00,85.1,66.9,30.06,ENE,71,4.7,7.8,54,0.00,,,0.00,WSDL version 420,2013-04-16 19:30:00,
2013-04-16 15:35:00,84.9,67.0,30.06,ENE,68,4.1,7.8,55,0.00,,,0.00,WSDL version 420,2013-04-16 19:35:00,
2013-04-16 15:40:00,85.1,67.4,30.06,ENE,68,5.0,8.5,55,0.00,,,0.00,WSDL version 420,2013-04-16 19:40:00,
2013-04-16 15:45:00,85.5,67.2,30.06,ENE,59,4.9,8.7,55,0.00,,,0.00,WSDL version 420,2013-04-16 19:45:00,
2013-04-16 15:50:00,85.1,67.4,30.06,NE,56,4.8,10.3,55,0.00,,,0.00,WSDL version 420,2013-04-16 19:50:00,
2013-04-16 15:55:00,84.4,66.7,30.06,NNW,338,4.4,10.3,56,0.00,,,0.00,WSDL version 420,2013-04-16 19:55:00,
2013-04-16 16:00:00,84.6,67.0,30.06,NE,38,4.2,8.5,56,0.00,,,0.00,WSDL version 420,2013-04-16 20:00:00,
2013-04-16 16:05:00,84.7,67.4,30.06,East,79,4.6,8.5,56,0.00,,,0.00,WSDL version 420,2013-04-16 20:05:00,
2013-04-16 16:10:00,84.8,67.7,30.06,North,357,2.7,8.5,57,0.00,,,0.00,WSDL version 420,2013-04-16 20:10:00,
2013-04-16 16:15:00,84.7,67.2,30.06,ENE,64,2.9,8.5,55,0.00,,,0.00,WSDL version 420,2013-04-16 20:15:00,
2013-04-16 16:20:00,84.3,67.0,30.06,NE,55,5.1,6.0,57,0.00,,,0.00,WSDL version 420,2013-04-16 20:20:00,
2013-04-16 16:25:00,83.8,66.9,30.06,NE,37,3.7,8.5,57,0.00,,,0.00,WSDL version 420,2013-04-16 20:25:00,
2013-04-16 16:30:00,83.4,67.1,30.06,ENE,71,4.4,8.5,58,0.00,,,0.00,WSDL version 420,2013-04-16 20:30:00,
2013-04-16 16:35:00,83.5,67.7,30.06,North,0,0.0,6.3,59,0.00,,,0.00,WSDL version 420,2013-04-16 20:35:00,
2013-04-16 16:52:00,83.1,68.3,30.06,ENE,68,2.7,4.7,61,0.00,,,0.00,WSDL version 420,2013-04-16 20:52:00,
2013-04-16 16:57:00,83.7,69.1,30.06,NE,42,1.8,6.5,61,0.00,,,0.00,WSDL version 420,2013-04-16 20:57:00,
2013-04-16 17:02:00,84.7,69.7,30.06,NE,45,2.9,6.5,60,0.00,,,0.00,WSDL version 420,2013-04-16 21:02:00,
2013-04-16 17:07:00,84.8,69.2,30.06,NNE,19,2.7,6.3,59,0.00,,,0.00,WSDL version 420,2013-04-16 21:07:00,
2013-04-16 17:12:00,85.6,69.5,30.06,ENE,64,3.5,4.9,59,0.00,,,0.00,WSDL version 420,2013-04-16 21:12:00,
2013-04-16 17:17:00,85.0,68.2,30.06,East,86,5.0,7.8,57,0.00,,,0.00,WSDL version 420,2013-04-16 21:17:00,
2013-04-16 17:27:00,83.6,67.8,30.06,NNE,15,2.6,8.1,60,0.00,,,0.00,WSDL version 420,2013-04-16 21:27:00,
2013-04-16 17:32:00,84.0,68.0,30.06,NNE,26,3.2,6.3,58,0.00,,,0.00,WSDL version 420,2013-04-16 21:32:00,
2013-04-16 17:37:00,84.3,68.1,30.06,NE,48,2.4,6.3,58,0.00,,,0.00,WSDL version 420,2013-04-16 21:37:00,
2013-04-16 17:42:00,84.1,67.5,30.06,NNE,14,4.4,7.2,57,0.00,,,0.00,WSDL version 420,2013-04-16 21:42:00,
2013-04-16 17:47:00,82.5,65.4,30.06,NNE,29,4.2,7.2,57,0.00,,,0.00,WSDL version 420,2013-04-16 21:47:00,
2013-04-16 17:52:00,81.7,65.5,30.06,NE,51,2.7,9.6,58,0.00,,,0.00,WSDL version 420,2013-04-16 21:52:00,
2013-04-16 17:57:00,81.0,65.2,30.06,ENE,58,3.9,9.6,59,0.00,,,0.00,WSDL version 420,2013-04-16 21:57:00,
2013-04-16 18:02:00,80.6,65.3,30.06,NE,51,4.0,6.5,60,0.00,,,0.00,WSDL version 420,2013-04-16 22:02:00,
2013-04-16 18:07:00,80.4,65.8,30.06,NE,35,2.8,6.5,62,0.00,,,0.00,WSDL version 420,2013-04-16 22:07:00,
2013-04-16 18:12:00,80.2,66.0,30.06,NE,45,2.7,5.8,62,0.00,,,0.00,WSDL version 420,2013-04-16 22:12:00,
2013-04-16 18:17:00,80.2,66.0,30.09,NE,55,2.0,5.8,62,0.00,,,0.00,WSDL version 420,2013-04-16 22:17:00,
2013-04-16 18:22:00,80.1,65.6,30.09,NNE,23,2.3,6.5,62,0.00,,,0.00,WSDL version 420,2013-04-16 22:22:00,
2013-04-16 18:27:00,79.9,65.3,30.09,NNE,26,3.2,8.1,61,0.00,,,0.00,WSDL version 420,2013-04-16 22:27:00,
2013-04-16 18:32:00,79.6,65.0,30.09,NE,48,4.1,8.1,61,0.00,,,0.00,WSDL version 420,2013-04-16 22:32:00,
2013-04-16 18:37:00,79.5,65.4,30.09,North,8,1.6,6.0,62,0.00,,,0.00,WSDL version 420,2013-04-16 22:37:00,
2013-04-16 18:42:00,79.3,65.1,30.09,East,90,1.8,5.4,62,0.00,,,0.00,WSDL version 420,2013-04-16 22:42:00,
2013-04-16 18:52:00,78.9,65.2,30.09,NE,55,2.9,4.9,63,0.00,,,0.00,WSDL version 420,2013-04-16 22:52:00,
2013-04-16 18:57:00,78.7,65.0,30.09,NE,42,2.0,4.7,63,0.00,,,0.00,WSDL version 420,2013-04-16 22:57:00,
2013-04-16 19:02:00,78.6,65.4,30.09,NNE,20,0.0,3.4,64,0.00,,,0.00,WSDL version 420,2013-04-16 23:02:00,
2013-04-16 19:07:00,78.5,65.3,30.09,NE,34,2.2,3.4,64,0.00,,,0.00,WSDL version 420,2013-04-16 23:07:00,
2013-04-16 19:12:00,78.4,65.7,30.09,ENE,64,2.2,3.4,65,0.00,,,0.00,WSDL version 420,2013-04-16 23:12:00,
2013-04-16 19:17:00,78.4,65.7,30.12,NE,45,2.3,3.6,65,0.00,,,0.00,WSDL version 420,2013-04-16 23:17:00,
2013-04-16 19:22:00,78.4,65.6,30.12,NE,53,3.2,5.6,65,0.00,,,0.00,WSDL version 420,2013-04-16 23:22:00,
2013-04-16 19:27:00,78.3,66.0,30.12,NNE,23,1.5,6.3,66,0.00,,,0.00,WSDL version 420,2013-04-16 23:27:00,
2013-04-16 19:32:00,78.2,66.0,30.12,NE,45,2.5,6.3,67,0.00,,,0.00,WSDL version 420,2013-04-16 23:32:00,
2013-04-16 19:37:00,78.0,66.2,30.12,NE,35,2.7,6.0,67,0.00,,,0.00,WSDL version 420,2013-04-16 23:37:00,
2013-04-16 19:42:00,77.8,66.2,30.12,East,87,2.5,4.3,68,0.00,,,0.00,WSDL version 420,2013-04-16 23:42:00,
2013-04-16 19:47:00,77.6,66.2,30.12,NE,45,3.2,4.7,68,0.00,,,0.00,WSDL version 420,2013-04-16 23:47:00,
2013-04-16 19:52:00,77.4,66.0,30.12,NNE,26,2.2,4.7,68,0.00,,,0.00,WSDL version 420,2013-04-16 23:52:00,
2013-04-16 19:57:00,77.2,65.9,30.12,NNE,30,2.4,4.3,68,0.00,,,0.00,WSDL version 420,2013-04-16 23:57:00,
2013-04-16 20:02:00,77.2,65.8,30.12,NE,55,2.1,4.9,68,0.00,,,0.00,WSDL version 420,2013-04-17 00:02:00,
2013-04-16 20:07:00,77.0,65.6,30.12,NE,45,0.4,4.9,68,0.00,,,0.00,WSDL version 420,2013-04-17 00:07:00,
2013-04-16 20:12:00,76.9,65.8,30.12,NE,35,0.0,3.8,69,0.00,,,0.00,WSDL version 420,2013-04-17 00:12:00,
2013-04-16 20:17:00,76.6,65.7,30.12,NE,45,0.0,3.8,69,0.00,,,0.00,WSDL version 420,2013-04-17 00:17:00,
2013-04-16 20:22:00,76.5,65.8,30.12,NE,42,0.8,2.0,70,0.00,,,0.00,WSDL version 420,2013-04-17 00:22:00,
2013-04-16 20:27:00,76.4,65.9,30.12,NNE,19,0.1,2.5,70,0.00,,,0.00,WSDL version 420,2013-04-17 00:27:00,
2013-04-16 20:32:00,76.3,65.8,30.12,NE,41,1.3,3.6,70,0.00,,,0.00,WSDL version 420,2013-04-17 00:32:00,
2013-04-16 20:37:00,76.2,65.8,30.12,North,5,1.4,3.6,71,0.00,,,0.00,WSDL version 420,2013-04-17 00:37:00,
2013-04-16 20:42:00,76.0,66.0,30.12,NNE,29,0.0,3.1,71,0.00,,,0.00,WSDL version 420,2013-04-17 00:42:00,
2013-04-16 20:47:00,75.9,65.8,30.12,NE,48,0.0,1.1,71,0.00,,,0.00,WSDL version 420,2013-04-17 00:47:00,
2013-04-16 20:52:00,75.8,66.0,30.12,NW,318,0.0,1.1,72,0.00,,,0.00,WSDL version 420,2013-04-17 00:52:00,
2013-04-16 20:57:00,75.7,66.2,30.12,NNE,28,0.8,2.7,72,0.00,,,0.00,WSDL version 420,2013-04-17 00:57:00,
2013-04-16 21:02:00,75.7,66.2,30.12,NE,37,0.3,3.6,72,0.00,,,0.00,WSDL version 420,2013-04-17 01:02:00,
2013-04-16 21:07:00,75.7,66.5,30.12,NE,35,2.1,3.6,73,0.00,,,0.00,WSDL version 420,2013-04-17 01:07:00,
2013-04-16 21:12:00,75.6,66.4,30.12,NNE,25,0.0,2.9,73,0.00,,,0.00,WSDL version 420,2013-04-17 01:12:00,
2013-04-16 21:17:00,75.6,66.3,30.12,NNE,30,1.2,3.4,73,0.00,,,0.00,WSDL version 420,2013-04-17 01:17:00,
2013-04-16 21:22:00,75.4,66.1,30.12,NE,45,0.3,3.4,73,0.00,,,0.00,WSDL version 420,2013-04-17 01:22:00,
2013-04-16 21:27:00,75.4,66.1,30.12,NNE,14,1.3,2.7,73,0.00,,,0.00,WSDL version 420,2013-04-17 01:27:00,
2013-04-16 21:32:00,75.2,66.0,30.09,NE,45,1.4,5.6,73,0.00,,,0.00,WSDL version 420,2013-04-17 01:32:00,
2013-04-16 21:37:00,75.2,66.0,30.09,NE,45,1.2,5.6,73,0.00,,,0.00,WSDL version 420,2013-04-17 01:37:00,
2013-04-16 21:42:00,75.2,66.0,30.09,NE,45,0.5,3.1,73,0.00,,,0.00,WSDL version 420,2013-04-17 01:42:00,
2013-04-16 21:47:00,75.2,66.2,30.12,NE,55,2.3,3.1,74,0.00,,,0.00,WSDL version 420,2013-04-17 01:47:00,
2013-04-16 21:52:00,75.1,66.2,30.12,NE,53,1.3,3.1,74,0.00,,,0.00,WSDL version 420,2013-04-17 01:52:00,
2013-04-16 21:57:00,75.0,66.2,30.12,NE,51,1.8,3.4,74,0.00,,,0.00,WSDL version 420,2013-04-17 01:57:00,
2013-04-16 22:02:00,75.0,66.2,30.12,NE,53,1.6,3.4,74,0.00,,,0.00,WSDL version 420,2013-04-17 02:02:00,
2013-04-16 22:07:00,75.0,66.2,30.12,ENE,68,2.1,4.0,74,0.00,,,0.00,WSDL version 420,2013-04-17 02:07:00,
2013-04-16 22:12:00,75.0,66.2,30.12,ENE,58,0.4,4.0,74,0.00,,,0.00,WSDL version 420,2013-04-17 02:12:00,
2013-04-16 22:17:00,75.0,66.2,30.15,NNE,27,2.3,4.7,74,0.00,,,0.00,WSDL version 420,2013-04-17 02:17:00,
2013-04-16 22:22:00,75.0,66.2,30.15,ENE,61,1.2,4.7,74,0.00,,,0.00,WSDL version 420,2013-04-17 02:22:00,
2013-04-16 22:27:00,74.9,66.1,30.15,ENE,65,1.7,3.6,74,0.00,,,0.00,WSDL version 420,2013-04-17 02:27:00,
2013-04-16 22:32:00,74.8,66.0,30.15,North,11,1.1,3.8,74,0.00,,,0.00,WSDL version 420,2013-04-17 02:32:00,
2013-04-16 22:37:00,74.8,66.0,30.15,ENE,58,1.6,3.8,74,0.00,,,0.00,WSDL version 420,2013-04-17 02:37:00,
2013-04-16 22:42:00,74.8,66.0,30.15,NE,45,1.9,3.6,74,0.00,,,0.00,WSDL version 420,2013-04-17 02:42:00,
2013-04-16 22:47:00,74.8,65.9,30.12,NE,51,0.9,3.4,74,0.00,,,0.00,WSDL version 420,2013-04-17 02:47:00,
2013-04-16 22:52:00,74.7,65.8,30.12,NE,49,1.4,3.1,74,0.00,,,0.00,WSDL version 420,2013-04-17 02:52:00,
2013-04-16 22:57:00,74.7,65.8,30.12,NE,53,1.3,3.1,74,0.00,,,0.00,WSDL version 420,2013-04-17 02:57:00,
2013-04-16 23:02:00,74.7,65.8,30.12,NE,50,1.6,3.4,74,0.00,,,0.00,WSDL version 420,2013-04-17 03:02:00,
2013-04-16 23:07:00,74.5,65.7,30.12,NE,51,2.6,5.8,74,0.00,,,0.00,WSDL version 420,2013-04-17 03:07:00,
2013-04-16 23:12:00,74.5,65.7,30.12,NE,56,0.0,5.8,74,0.00,,,0.00,WSDL version 420,2013-04-17 03:12:00,
2013-04-16 23:17:00,74.5,65.7,30.12,NE,50,0.0,4.3,74,0.00,,,0.00,WSDL version 420,2013-04-17 03:17:00,
2013-04-16 23:22:00,74.4,65.5,30.12,NE,53,1.0,4.3,74,0.00,,,0.00,WSDL version 420,2013-04-17 03:22:00,
2013-04-16 23:27:00,74.3,65.5,30.12,NE,35,0.0,3.1,74,0.00,,,0.00,WSDL version 420,2013-04-17 03:27:00,
2013-04-16 23:32:00,74.3,65.5,30.12,NNE,30,0.4,2.2,74,0.00,,,0.00,WSDL version 420,2013-04-17 03:32:00,
2013-04-16 23:37:00,74.3,65.4,30.12,NE,45,0.0,2.2,74,0.00,,,0.00,WSDL version 420,2013-04-17 03:37:00,
2013-04-16 23:42:00,74.1,65.3,30.12,NNE,23,0.0,2.0,74,0.00,,,0.00,WSDL version 420,2013-04-17 03:42:00,
2013-04-16 23:47:00,74.0,65.2,30.12,NE,48,0.1,2.0,74,0.00,,,0.00,WSDL version 420,2013-04-17 03:47:00,
2013-04-16 23:52:00,73.9,65.5,30.12,East,90,0.0,2.5,75,0.00,,,0.00,WSDL version 420,2013-04-17 03:52:00,
2013-04-16 23:57:00,73.9,65.5,30.12,NNE,23,0.0,2.5,75,0.00,,,0.00,WSDL version 420,2013-04-17 03:57:00,